Weather Roundup
Issued by NWS Corpus Christi, TX

Home | Current Version | Previous Version | Text Only | Print | Product List | Glossary On
Versions: 1 2 3 4 5 6 7 8 9 10 11 12 13 14 15 16 17 18 19 20 21 22 23 24 25 26 27 28 29 30 31 32 33 34 35 36 37 38 39 40 41 42 43 44 45 46 47 48 49 50
000
ASUS44 KCRP 210410
HRRCRP

SOUTH TEXAS REGIONAL WEATHER ROUNDUP
NATIONAL WEATHER SERVICE CORPUS CHRISTI TX
1000 PM CST FRI JAN 20 2017


TXZ229>244-210500-
...CORPUS CHRISTI AREA OBSERVATIONS...

CITY           SKY/WX    TMP DP  RH WIND       PRES   REMARKS
CORPUS CHRISTI FOG       66  66 100 CALM      29.70F VSB 1
NAS CORPUS CHR FOG       66  66 100 N3        29.70S VSB 1/4
ROCKPORT       FOG       66  65  96 CALM      29.70F VSB 3/4
KINGSVILLE NAS CLOUDY    68  66  93 CALM      29.70R
ALICE          CLOUDY    66  64  93 CALM      29.69F
ORANGE GROVE   CLOUDY    67  66  97 E3        29.70F
FALFURRIAS     CLOUDY    66  65  95 CALM      29.70S
$$

...VICTORIA AREA OBSERVATIONS...

CITY           SKY/WX    TMP DP  RH WIND       PRES   REMARKS
VICTORIA       CLOUDY    66  64  93 CALM      29.71S
BEEVILLE       FOG       55  55 100 E3        29.72R VSB 1/4
PLEASANTON     CLEAR     57  56  98 CALM      29.70F
SAN ANTONIO    PTCLDY    57  51  80 N5        29.71F
$$

...LAREDO AREA OBSERVATIONS...

CITY           SKY/WX    TMP DP  RH WIND       PRES   REMARKS
LAREDO         CLEAR     60  57  89 E7        29.67F
COTULLA        CLEAR     61  58  90 SE6       29.68F
DEL RIO        CLEAR     61  46  57 E7        29.64F
MCALLEN        FOG       64  62  93 CALM      29.70S VSB<1/4
HEBBRONVILLE   FOG       58  58  99 CALM      29.71S VSB 1/4
$$

...OTHER TEXAS OBSERVATIONS...

CITY           SKY/WX    TMP DP  RH WIND       PRES   REMARKS
BROWNSVILLE    CLEAR     65  65 100 S3        29.70S FOG
HOUSTON        LGT RAIN  64  61  90 SE8       29.68F
COL. STATION   PTCLDY    62  56  80 SE3       29.68F
AUSTIN         PTCLDY    57  51  80 SW3       29.69S
WACO           CLEAR     54  51  90 S7        29.67R
FORT WORTH     PTCLDY    58  43  57 S9        29.64R
WICHITA FALLS  PTCLDY    54  37  52 SW10      29.60R
LUBBOCK        PTCLDY    45  32  60 SW8       29.64S
EL PASO        CLOUDY    53  30  41 SW14      29.69R
$$

...MARINE OBSERVATIONS...

STATION/POSITION TIME  SKY/WX   TEMP    WIND        PRES    VSBY  WAVE   SWELL
                                AIR SEA DIR/SP/G                  HT/PER HT/PER
                 (UTC)          (F)     (DEG/KT/KT) (MB)    (MI)  (FT/S) (FT/S)
PORT ARANSAS     0400            66 63  320/  3/  4 1005.6F
BUOY 90 E PORT A 0250            74 74  160/ 16/ 17 1004.8          3/ 7   2/ 7
BUOY 45 SE BAFFI 0250            71     180/ 10/ 12 1004.4          3/ 6   3/ 6
BUOY 200 E PT IS 0250            76 75  150/ 16/ 19 1006.5          3/ 5
BUOY 15 E GALVES 0250            69 67  130/ 10/ 12 1005.3          2/ 7   2/ 7
$$




USA.gov is the U.S. government's official web portal to all federal, state and local government web resources and services.